Tracking 19709 objects as of 18-Jun-2019
HD Live streaming from Space Station
objects crossing your sky now

GALILEO-FM2

Track GALILEO-FM2 now!
GALILEO-FM2 is classified as:


NORAD ID: 37847
Int'l Code: 2011-060B
Perigee: 23,215.8 km
Apogee: 23,242.5 km
Inclination: 56.4 °
Period: 844.7 minutes
Semi major axis: 29600 km
RCS: 48.7715 m2 (large)
Launch date: October 21, 2011
Source: European Space Agency (ESA)
Launch site: FRENCH GUIANA (FRGUI)

GALILEO-FM2 is a navigation satellite part of the European Union's Galileo program.
aabbcc
Your satellite tracking list
Your tracking list is empty




NASA's NSSDC Master Catalog

Two Line Element Set (TLE):
1 37847U 11060B   19169.48582919 -.00000086  00000-0  00000+0 0  9993
2 37847  56.3804  51.3471 0004507 333.5637 310.9906  1.70475817 47676
Source of the keplerian elements: AFSPC